This is the latest recevied weather packets stored in our database for station/object HG5CJW-10. If no packets are shown the sender has not sent any weather packets the latest 10 day(s).
| Time | Temp. | Humidity | Pressure | Rain* | Wind** | Luminosity | Snow |
|---|---|---|---|---|---|---|---|
| 1788457768 | 22.22° C | 49% | 1037 hPa | - | - | - | - |
| 1788456868 | 22.78° C | 48% | 1036.9 hPa | - | - | - | - |
| 1788455968 | 23.33° C | 47% | 1036.7 hPa | - | - | - | - |
| 1788455068 | 23.89° C | 46% | 1036.6 hPa | - | - | - | - |
| 1788454168 | 23.89° C | 45% | 1036.6 hPa | - | - | - | - |
| 1788453268 | 24.44° C | 43% | 1036.5 hPa | - | - | - | - |
| 1788452367 | 24.44° C | 43% | 1036.6 hPa | - | - | - | - |
| 1788451467 | 25° C | 41% | 1036.6 hPa | - | - | - | - |
| 1788450567 | 25° C | 43% | 1036.7 hPa | - | - | - | - |
| 1788449667 | 25° C | 41% | 1036.5 hPa | - | - | - | - |
| 1788448767 | 25.56° C | 40% | 1036.7 hPa | - | - | - | - |
| 1788447867 | 25.56° C | 39% | 1036.9 hPa | - | - | - | - |
| 1788446967 | 26.11° C | 38% | 1036.8 hPa | - | - | - | - |
| 1788446067 | 26.11° C | 37% | 1036.7 hPa | - | - | - | - |
| 1788445167 | 25.56° C | 37% | 1036.3 hPa | - | - | - | - |
| 1788444261 | 26.67° C | 36% | 1036.9 hPa | - | - | - | - |
| 1788443361 | 26.67° C | 35% | 1037 hPa | - | - | - | - |
| 1788442461 | 26.67° C | 35% | 1037 hPa | - | - | - | - |
| 1788441561 | 27.22° C | 34% | 1037 hPa | - | - | - | - |
| 1788440661 | 27.22° C | 38% | 1037 hPa | - | - | - | - |
| 1788439761 | 26.67° C | 36% | 1037.1 hPa | - | - | - | - |
| 1788438861 | 26.67° C | 34% | 1036.5 hPa | - | - | - | - |
| 1788437961 | 27.22° C | 32% | 1036.9 hPa | - | - | - | - |
| 1788437061 | 27.22° C | 31% | 1036.2 hPa | - | - | - | - |
| 1788435261 | 27.22° C | 33% | 1037.2 hPa | - | - | - | - |
* Rain since midnight (hover to see other rain measurements)
** Current wind speed in m/s (hover to see current wind gust speed)